Regional Weather Roundup
Issued by NWS

Home | Current Version | Previous Version | Text Only | Print | Product List | Glossary Off
Versions: 1 2 3 4 5 6 7 8 9 10 11 12 13 14 15 16 17 18 19 20 21 22 23 24 25 26 27 28 29 30 31 32 33 34 35 36 37 38 39 40 41 42 43 44 45 46 47 48 49 50

000
ASUS43 KIND 260809
RWRIN

WEATHER ROUNDUP FOR INDIANA
NATIONAL WEATHER SERVICE INDIANAPOLIS IN
400 AM EDT SUN APR 26 2015

NOTE: "FAIR" INDICATES FEW OR NO CLOUDS BELOW 12,000 FEET WITH NO
SIGNIFICANT WEATHER AND/OR OBSTRUCTIONS TO VISIBILITY.

* - STATION DOES NOT REPORT WEATHER SUCH AS PRECIPITATION OR FOG.

+ - STATION NOT QUALITY CONTROLLED BY THE NATIONAL WEATHER SERVICE.
    USE DATA WITH CAUTION...ESPECIALLY DEWPOINT AND RELATIVE
    HUMIDITY OBSERVATIONS.

INZ001>003-010>013-019-020-260900-
NORTHWEST INDIANA

CITY           SKY/WX    TMP DP  RH WIND       PRES   REMARKS
GARY /AIRPORT/ CLEAR     40  35  81 NE9       29.87S
KNOX *+        CLEAR     34  30  86 N6        29.85R WCI  29
LA PORTE +     MOCLDY    40  33  76 NE8       29.86S
MICHIGAN CITY+ CLEAR     32  32 100 CALM      29.87S
MONTICELLO +   MOCLDY    40  34  78 N6        29.83R
VALPARAISO     PTCLDY    36  33  89 N6        29.86R

$$

LMZ046-743>745-260900-
SOUTHERN LAKE MICHIGAN

STATION/POSITION TIME  TEMP    WIND        PRES    WAVE
                       AIR SEA DIR/SP/G            HT
                 (UTC) (F)     (DEG/KT/KT) (MB)    (FT)
BURNS HARBOR     0800   42      50/ 10/ 11 1012.2S
MICHIGAN CITY    0800   44      20/ 14/ 15   N/A
5NW MICH CITY    0800   42 45   50/ 12/ 14   N/A     3

$$

INZ004-005-014>016-021>024-260900-
NORTH CENTRAL INDIANA

CITY           SKY/WX    TMP DP  RH WIND       PRES   REMARKS
GOSHEN         CLEAR     37  28  70 NE9       29.84R
LOGANSPORT +   MOCLDY    41  32  70 N6        29.83S
PERU/GRISSOM   MOCLDY    39  32  75 NE8       29.81R
ROCHESTER +    CLEAR     39  34  81 CALM      29.84R
SOUTH BEND     CLEAR     39  29  67 NE9       29.87R
WARSAW +       CLEAR     36  30  80 NE7       29.83R

$$

INZ006>009-017-018-025>027-260900-
NORTHEAST INDIANA

CITY           SKY/WX    TMP DP  RH WIND       PRES   REMARKS
ANGOLA *+      CLEAR     36  27  69 NE5       29.83R
AUBURN +       CLEAR     36  30  80 N6        29.83S
FORT WAYNE     PTCLDY    38  30  73 N8        29.83R
HUNTINGTON +   PTCLDY    38  30  73 NE5       29.82R

$$

INZ028-029-035-036-043>045-051>053-260900-
WEST CENTRAL INDIANA

CITY           SKY/WX    TMP DP  RH WIND       PRES   REMARKS
CRAWFORDSVL +  CLOUDY    40  27  61 NE13      29.79R
GREENCASTLE +  CLOUDY    41  30  65 NE9       29.78R
LAFAYETTE      CLOUDY    42  33  70 N8        29.83R
TERRE HAUTE    CLOUDY    45  37  73 NE7       29.78R

$$

INZ030>032-037>040-046>048-054>057-064-065-260900-
CENTRAL INDIANA

CITY           SKY/WX    TMP DP  RH WIND       PRES   REMARKS
CP ATTERBURY + CLOUDY    43  32  65 NE9       29.76R
FISHERS *+     CLOUDY    41  34  75 NE6       29.78
FRANKFORT +    MOCLDY    42  34  74 N9        29.82R
GREENWOOD *+   CLOUDY    41  28  60 NE9       29.77R
INDIANAPOLIS   CLOUDY    43  29  57 NE12      29.76R
-EAGLE CREEK   CLOUDY    43  29  57 NE10      29.78R
KOKOMO *+      MOCLDY    39  34  81 NE7       29.81R
MARION +       MOCLDY    40  32  75 NE5       29.81R
MT COMFORT *+  CLOUDY    41  27  56 NE10G16   29.78S
SHELBYVILLE    CLOUDY    44  29  55 NE12      29.75S
ZIONSVILLE +   CLOUDY    42  31  64 NE9       29.79S

$$

INZ033-034-041-042-049-050-058-059-260900-
EAST CENTRAL INDIANA

CITY           SKY/WX    TMP DP  RH WIND       PRES   REMARKS
MUNCIE         CLOUDY    41  32  70 NE10      29.79R

$$

INZ060-061-067>069-081>083-085>088-260900-
SOUTHWEST INDIANA

CITY           SKY/WX    TMP DP  RH WIND       PRES   REMARKS
EVANSVILLE     CLOUDY    49  43  80 NE15      29.73R
HUNTINGBURG *+ CLOUDY    46  39  76 NE12G18   29.72R
WASHINGTON +   CLOUDY    46  42  85 NE6       29.74R

$$

INZ062-063-066-070>080-084-089>092-260900-
SOUTH CENTRAL AND SOUTHEAST INDIANA

CITY           SKY/WX    TMP DP  RH WIND       PRES   REMARKS
BEDFORD +      CLOUDY    45  39  81 NE10G16   29.72S
BLOOMINGTON    CLOUDY    44  38  79 NE10      29.75R
MADISON *+     CLOUDY    45  39  81 NE9G16    29.73S
NORTH VERNON + CLOUDY    45  43  93 NE8       29.74R
SEYMOUR +      CLOUDY    46  39  76 NE8       29.73R

$$




USA.gov is the U.S. government's official web portal to all federal, state and local government web resources and services.